STARLINK-34261

Last updated on Wed Aug 06 2025 00:02:06 GMT+0000 (Coordinated Universal Time)

1 64764U 25147K 25217.58426160 .00073892 00000+0 13269-2 0 9996 2 64764 53.1600 169.4806 0003175 39.7735 320.3506 15.49245718 5660
UTC large
Height (km)
Speed (km/s)
/
Latitude / Longitude
Inclination (degrees)
Orbital Period (minutes)
Azimuth
Elevation
Range (km)
Doppler Factor

Next 0 passes for location: London (51.5072 / 0.1276)

Sorry there are no passes over London.